Time,TemperatureF,DewpointF,PressureIn,WindDirection,WindDirectionDegrees,WindSpeedMPH,WindSpeedGustMPH,Humidity,HourlyPrecipIn,Conditions,Clouds,dailyrainin,SoftwareType,DateUTC
2013-07-12 00:01:00,63.0,60.0,-100.00,SSE,165,0.0,0.0,88,0.00,,,-99.99,,2013-07-12 04:01:00,
2013-07-12 00:32:00,61.0,60.0,-100.00,SE,125,0.0,0.0,95,0.00,,,-99.99,,2013-07-12 04:32:00,
2013-07-12 01:02:00,62.0,60.0,-100.00,East,90,0.0,0.0,94,0.00,,,-99.99,,2013-07-12 05:02:00,
2013-07-12 01:11:00,62.0,60.0,-100.00,SSE,155,0.0,0.0,91,0.00,,,-99.99,,2013-07-12 05:11:00,
2013-07-12 01:32:00,62.0,59.0,-100.00,East,95,0.0,0.0,92,0.00,,,-99.99,,2013-07-12 05:32:00,
2013-07-12 01:43:00,62.0,59.0,-100.00,NNE,15,0.0,0.0,90,0.00,,,-99.99,,2013-07-12 05:43:00,
2013-07-12 01:53:00,62.0,58.0,-100.00,NNE,20,0.0,0.0,89,0.00,,,-99.99,,2013-07-12 05:53:00,
2013-07-12 02:01:00,62.0,58.0,-100.00,NNE,20,0.0,0.0,89,0.00,,,-99.99,,2013-07-12 06:01:00,
2013-07-12 02:11:00,61.0,58.0,-100.00,ENE,65,0.0,0.0,90,0.00,,,-99.99,,2013-07-12 06:11:00,
2013-07-12 02:22:00,61.0,58.0,-100.00,East,100,0.0,0.0,90,0.00,,,-99.99,,2013-07-12 06:22:00,
2013-07-12 02:33:00,60.0,58.0,-100.00,East,85,0.0,0.0,92,0.00,,,-99.99,,2013-07-12 06:33:00,
2013-07-12 02:52:00,61.0,58.0,-100.00,ESE,110,0.0,0.0,90,0.00,,,-99.99,,2013-07-12 06:52:00,
2013-07-12 03:02:00,60.0,58.0,-100.00,South,175,0.0,0.0,91,0.00,,,-99.99,,2013-07-12 07:02:00,
2013-07-12 03:12:00,60.0,58.0,-100.00,South,175,0.0,0.0,91,0.00,,,-99.99,,2013-07-12 07:12:00,
2013-07-12 03:22:00,61.0,58.0,-100.00,SE,145,0.0,0.0,90,0.00,,,-99.99,,2013-07-12 07:22:00,
2013-07-12 03:32:00,61.0,58.0,-100.00,South,175,0.0,0.0,88,0.00,,,-99.99,,2013-07-12 07:32:00,
2013-07-12 03:43:00,61.0,58.0,-100.00,SSW,200,0.0,0.0,88,0.00,,,-99.99,,2013-07-12 07:43:00,
2013-07-12 03:52:00,60.0,58.0,-100.00,West,265,0.0,0.0,90,0.00,,,-99.99,,2013-07-12 07:52:00,
2013-07-12 04:01:00,60.0,58.0,-100.00,SSW,200,0.0,0.0,91,0.00,,,-99.99,,2013-07-12 08:01:00,
2013-07-12 04:11:00,60.0,58.0,-100.00,SSW,200,0.0,0.0,91,0.00,,,-99.99,,2013-07-12 08:11:00,
2013-07-12 04:21:00,60.0,58.0,-100.00,SSW,210,0.0,0.0,91,0.00,,,-99.99,,2013-07-12 08:21:00,
2013-07-12 04:32:00,60.0,57.0,-100.00,West,275,0.0,0.0,90,0.00,,,-99.99,,2013-07-12 08:32:00,
2013-07-12 04:42:00,61.0,58.0,-100.00,NNW,330,0.0,0.0,89,0.00,,,-99.99,,2013-07-12 08:42:00,
2013-07-12 05:02:00,60.0,57.0,-100.00,NW,320,0.0,0.0,90,0.00,,,-99.99,,2013-07-12 09:02:00,
2013-07-12 05:12:00,60.0,57.0,-100.00,NNW,330,0.0,0.0,90,0.00,,,-99.99,,2013-07-12 09:12:00,
2013-07-12 05:22:00,59.0,57.0,-100.00,NNW,330,0.0,0.0,92,0.00,,,-99.99,,2013-07-12 09:22:00,
2013-07-12 06:42:00,59.0,58.0,-100.00,NW,325,0.0,0.0,95,0.00,,,-99.99,,2013-07-12 10:42:00,
2013-07-12 07:43:00,62.0,58.0,-100.00,South,180,0.0,0.0,90,0.00,,,-99.99,,2013-07-12 11:43:00,
2013-07-12 08:32:00,64.0,60.0,-100.00,East,85,0.0,2.0,87,0.00,,,-99.99,,2013-07-12 12:32:00,
2013-07-12 08:43:00,64.0,60.0,-100.00,NE,40,0.0,3.0,87,0.00,,,-99.99,,2013-07-12 12:43:00,
2013-07-12 08:52:00,65.0,60.0,-100.00,NE,45,2.0,6.0,86,0.00,,,-99.99,,2013-07-12 12:52:00,
2013-07-12 09:01:00,66.0,62.0,-100.00,East,95,2.0,6.0,87,0.00,,,-99.99,,2013-07-12 13:01:00,
2013-07-12 09:32:00,66.0,61.0,-100.00,NNE,30,4.0,9.0,83,0.00,,,-99.99,,2013-07-12 13:32:00,
2013-07-12 09:43:00,66.0,60.0,-100.00,NNE,30,5.0,10.0,82,0.00,,,-99.99,,2013-07-12 13:43:00,
2013-07-12 10:02:00,67.0,61.0,-100.00,NE,40,3.0,9.0,80,0.00,,,-99.99,,2013-07-12 14:02:00,
2013-07-12 10:32:00,68.0,60.0,-100.00,NNE,25,6.0,9.0,76,0.00,,,-99.99,,2013-07-12 14:32:00,
2013-07-12 10:44:00,69.0,60.0,-100.00,NNE,30,4.0,9.0,74,0.00,,,-99.99,,2013-07-12 14:44:00,
2013-07-12 10:53:00,69.0,61.0,-100.00,NE,35,6.0,9.0,75,0.00,,,-99.99,,2013-07-12 14:53:00,
2013-07-12 11:02:00,70.0,61.0,-100.00,North,0,3.0,9.0,71,0.00,,,-99.99,,2013-07-12 15:02:00,
2013-07-12 12:01:00,72.0,60.0,-100.00,NNE,25,4.0,10.0,66,0.00,,,-99.99,,2013-07-12 16:01:00,
2013-07-12 12:22:00,73.0,59.0,-100.00,NNE,20,3.0,9.0,60,0.00,,,-99.99,,2013-07-12 16:22:00,
2013-07-12 13:06:00,74.0,59.0,-100.00,NE,50,4.0,8.0,60,0.00,,,-99.99,,2013-07-12 17:06:00,
2013-07-12 14:07:00,74.0,59.0,-100.00,West,275,1.0,12.0,59,-99.99,,,-99.99,,2013-07-12 18:07:00,
2013-07-12 14:48:00,74.0,58.0,-100.00,NE,35,6.0,10.0,57,0.00,,,-99.99,,2013-07-12 18:48:00,
2013-07-12 15:05:00,76.0,61.0,-100.00,East,85,6.0,13.0,59,0.00,,,-99.99,,2013-07-12 19:05:00,
2013-07-12 15:15:00,76.0,60.0,-100.00,North,0,2.0,12.0,58,0.00,,,-99.99,,2013-07-12 19:15:00,
2013-07-12 15:24:00,76.0,60.0,-100.00,East,90,8.0,12.0,57,0.00,,,-99.99,,2013-07-12 19:24:00,
2013-07-12 15:33:00,78.0,62.0,-100.00,NNE,20,3.0,9.0,58,0.00,,,-99.99,,2013-07-12 19:33:00,
2013-07-12 15:46:00,76.0,60.0,-100.00,East,90,6.0,12.0,57,0.00,,,-99.99,,2013-07-12 19:46:00,
2013-07-12 16:04:00,75.0,58.0,-100.00,NNE,25,4.0,9.0,54,0.00,,,-99.99,,2013-07-12 20:04:00,
2013-07-12 16:14:00,76.0,59.0,-100.00,ENE,75,7.0,10.0,55,0.00,,,-99.99,,2013-07-12 20:14:00,
2013-07-12 17:46:00,78.0,63.0,-100.00,North,5,1.0,6.0,59,0.00,,,-99.99,,2013-07-12 21:46:00,
2013-07-12 18:04:00,79.0,61.0,-100.00,NE,40,3.0,9.0,54,0.00,,,-99.99,,2013-07-12 22:04:00,
2013-07-12 18:24:00,78.0,60.0,-100.00,North,10,3.0,8.0,54,0.00,,,-99.99,,2013-07-12 22:24:00,
2013-07-12 18:33:00,78.0,59.0,-100.00,NNW,335,4.0,9.0,53,0.00,,,-99.99,,2013-07-12 22:33:00,
2013-07-12 19:04:00,78.0,60.0,-100.00,NNW,330,4.0,9.0,54,0.00,,,-99.99,,2013-07-12 23:04:00,
2013-07-12 19:25:00,77.0,60.0,-100.00,NNW,335,3.0,9.0,56,0.00,,,-99.99,,2013-07-12 23:25:00,
2013-07-12 19:44:00,76.0,62.0,-100.00,NE,55,2.0,9.0,60,0.00,,,-99.99,,2013-07-12 23:44:00,
2013-07-12 19:55:00,76.0,59.0,-100.00,NNE,30,5.0,9.0,57,0.00,,,-99.99,,2013-07-12 23:55:00,
2013-07-12 20:07:00,76.0,61.0,-100.00,NNE,20,3.0,9.0,59,0.00,,,-99.99,,2013-07-13 00:07:00,
2013-07-12 20:17:00,75.0,60.0,-100.00,NE,35,2.0,7.0,60,0.00,,,-99.99,,2013-07-13 00:17:00,
2013-07-12 20:33:00,74.0,60.0,-100.00,ENE,70,3.0,6.0,61,0.00,,,-99.99,,2013-07-13 00:33:00,
2013-07-12 20:46:00,73.0,60.0,-100.00,NE,40,4.0,6.0,62,0.00,,,-99.99,,2013-07-13 00:46:00,
2013-07-12 21:05:00,72.0,60.0,-100.00,NNE,30,2.0,6.0,66,0.00,,,-99.99,,2013-07-13 01:05:00,
2013-07-12 21:13:00,72.0,60.0,-100.00,NE,45,1.0,5.0,66,0.00,,,-99.99,,2013-07-13 01:13:00,
2013-07-12 21:24:00,71.0,60.0,-100.00,NW,325,2.0,6.0,68,0.00,,,-99.99,,2013-07-13 01:24:00,
2013-07-12 21:38:00,70.0,60.0,-100.00,NNE,25,2.0,6.0,68,0.00,,,-99.99,,2013-07-13 01:38:00,
2013-07-12 21:47:00,70.0,59.0,-100.00,NNE,20,2.0,6.0,69,0.00,,,-99.99,,2013-07-13 01:47:00,
2013-07-12 21:55:00,70.0,60.0,-100.00,SE,145,1.0,4.0,70,0.00,,,-99.99,,2013-07-13 01:55:00,
2013-07-12 22:05:00,69.0,60.0,-100.00,North,10,0.0,4.0,71,0.00,,,-99.99,,2013-07-13 02:05:00,
2013-07-12 22:15:00,69.0,60.0,-100.00,North,0,1.0,3.0,73,0.00,,,-99.99,,2013-07-13 02:15:00,
2013-07-12 22:46:00,68.0,61.0,-100.00,NNW,345,1.0,2.0,78,0.00,,,-99.99,,2013-07-13 02:46:00,